Regional Weather Roundup
Issued by NWS

Home | Current Version | Previous Version | Text Only | Print | Product List | Glossary Off
Versions: 1 2 3 4 5 6 7 8 9 10 11 12 13 14 15 16 17 18 19 20 21 22 23 24 25 26 27 28 29 30 31 32 33 34 35 36 37 38 39 40 41 42 43 44 45 46 47 48 49 50

000
ASUS45 KCYS 061810
RWRWY

WYOMING REGIONAL WEATHER ROUNDUP
NATIONAL WEATHER SERVICE CHEYENNE WY
1200 PM MDT MON JUL 06 2015

NOTE:  "FAIR" INDICATES FEW OR NO CLOUDS BELOW 12,000 FEET
WITH NO SIGNIFICANT WEATHER AND/OR OBSTRUCTIONS TO VISIBILITY.

WYZ001-061900-
YELLOWSTONE NATIONAL PARK

CITY           SKY/WX    TMP DP  RH WIND       PRES   REMARKS
LK YELLOWSTONE   N/A     59  48  67 VRB6      30.38S
6HR MIN TEMP:  43; 6HR MAX TEMP:  61;

W YELLOWSTONE  NOT AVBL

$$
WYZ002>013-054>058-071-098>099-061900-
NORTHERN WYOMING

CITY           SKY/WX    TMP DP  RH WIND       PRES   REMARKS
JACKSON        CLOUDY    57  54  88 S5        30.32S
CODY           CLOUDY    61  48  63 E7        30.29S
GREYBULL       PTSUNNY   67  51  56 VRB3      30.24F
6HR MIN TEMP:  54; 6HR MAX TEMP:  67;

WORLAND        CLOUDY    64  52  64 VRB3      30.26F
6HR MIN TEMP:  56; 6HR MAX TEMP:  64;

SHERIDAN       CLOUDY    57  52  83 N5        30.29S
6HR MIN TEMP:  53; 6HR MAX TEMP:  58; 6HR PCP:  0.05;

BUFFALO        CLOUDY    54  51  90 CALM      30.31S
6HR MIN TEMP:  51; 6HR MAX TEMP:  54; 6HR PCP:  0.02;

GILLETTE       CLOUDY    60  50  69 CALM      30.29S
6HR MIN TEMP:  53; 6HR MAX TEMP:  61;

HULETT         CLOUDY    59  50  72 CALM      30.30S
NEWCASTLE      FAIR      64  46  52 MISG      30.27S

$$
WYZ014>020-022>026-101>103-061900-
CENTRAL WYOMING

CITY           SKY/WX    TMP DP  RH WIND       PRES   REMARKS
BIG PINEY      FAIR      69  48  47 VRB5      30.33S
6HR MIN TEMP:  54; 6HR MAX TEMP:  69; 6HR PCP: TRACE;

PINEDALE       MOCLDY    63  50  63 SE5       30.35S
DUBOIS         FAIR      59  50  72 SE9       30.34S
LANDER         CLOUDY    58  55  90 NE3       30.30S FOG
6HR MIN TEMP:  54; 6HR MAX TEMP:  58; 6HR PCP:  0.01;

RIVERTON       CLOUDY    62  52  69 E7        30.30S
6HR MIN TEMP:  55; 6HR MAX TEMP:  63;

CASPER         CLOUDY    60  51  72 E6        30.31S HAZE
6HR MIN TEMP:  54; 6HR MAX TEMP:  59; 6HR PCP:  0.01;

DOUGLAS        CLOUDY    58  53  84 NE5       30.31S HAZE
6HR MIN TEMP:  54; 6HR MAX TEMP:  58; 6HR PCP: TRACE;


$$
WYZ021-027>030-104>119-061900-
SOUTHERN WYOMING

CITY           SKY/WX    TMP DP  RH WIND       PRES   REMARKS
EVANSTON       FAIR      69  54  58 CALM      30.31F
6HR MIN TEMP:  53; 6HR MAX TEMP:  71;

KEMMERER       FAIR      68  52  56 E6        30.34S
FORT BRIDGER   PTCLDY    66  57  72 CALM      30.35S
ROCK SPRINGS   PTSUNNY   67  52  58 E5        30.31S
6HR MIN TEMP:  56; 6HR MAX TEMP:  67;

DIXON          FAIR      70  54  57 W6        30.31F
RAWLINS        CLOUDY    60  51  72 E5        30.35R
6HR MIN TEMP:  53; 6HR MAX TEMP:  61;

SARATOGA       MOCLDY    64  52  63 N8        30.34S
LARAMIE        CLOUDY    57  51  80 NE3       30.35S
6HR MIN TEMP:  52; 6HR MAX TEMP:  57; 6HR PCP:  0.18;

CHEYENNE       FOG       54  53  97 NE8       30.33R VSB 1
6HR MIN TEMP:  54; 6HR MAX TEMP:  56; 6HR PCP:  0.05;

TORRINGTON     CLOUDY    62  51  67 N8        30.28R HAZE
6HR MIN TEMP:  57; 6HR MAX TEMP:  62; 6HR PCP:  0.01;

PINE BLUFFS    CLOUDY    55  54  94 N9        30.30S FOG

$$


USA.gov is the U.S. government's official web portal to all federal, state and local government web resources and services.